AKDT,Max TemperatureF,Mean TemperatureF,Min TemperatureF,Max Dew PointF,MeanDew PointF,Min DewpointF,Max Humidity, Mean Humidity, Min Humidity, Max Sea Level PressureIn, Mean Sea Level PressureIn, Min Sea Level PressureIn, Max VisibilityMiles, Mean VisibilityMiles, Min VisibilityMiles, Max Wind SpeedMPH, Mean Wind SpeedMPH, Max Gust SpeedMPH,PrecipitationIn, CloudCover, Events, WindDirDegrees
2012-9-1,59,50,42,48,45,39,94,82,59,29.98,29.94,29.91,10,10,3,13,2,20,0.00,6,,253
2012-9-2,57,52,48,48,48,45,100,86,67,30.15,30.09,29.96,10,8,0,7,1,,0.00,7,,194
2012-9-3,55,52,50,52,50,48,94,93,88,30.21,30.17,30.12,10,6,4,6,0,,0.00,8,,31
2012-9-4,57,54,50,54,51,48,100,92,82,30.29,30.21,30.14,10,8,3,7,2,,0.00,7,,187
2012-9-5,57,52,46,52,48,45,100,89,72,30.32,30.29,30.24,10,6,0,6,2,,0.00,8,Fog,348
2012-9-6,60,52,44,50,46,39,94,79,45,30.35,30.29,30.23,10,9,2,8,2,,0.00,4,,81
2012-9-7,60,50,39,50,44,37,94,79,52,30.35,30.26,30.09,10,9,0,8,3,,0.00,5,,144
2012-9-8,55,53,51,55,52,46,100,95,82,30.09,29.82,29.54,10,5,2,14,1,25,0.00,8,,242
2012-9-9,51,48,46,48,45,39,93,87,76,29.67,29.54,29.46,10,9,5,14,4,25,0.00,7,,118
2012-9-10,50,48,46,48,45,43,100,91,82,30.03,29.86,29.67,10,10,7,6,1,,0.00,7,,47
2012-9-11,50,47,44,46,44,39,100,90,71,30.18,30.11,30.04,10,8,0,14,2,20,0.00,8,,89
2012-9-12,51,50,48,50,48,45,94,90,82,30.07,30.02,29.95,10,6,3,6,1,,0.00,8,,94
2012-9-13,55,52,50,52,50,43,100,89,76,30.03,29.82,29.53,10,6,3,25,3,37,0.00,8,,159
2012-9-14,53,50,46,48,45,43,94,81,71,30.30,30.16,29.92,10,9,0,14,5,20,0.00,7,,187
2012-9-15,55,50,44,48,45,43,100,87,67,30.42,30.38,30.30,10,8,0,6,1,,0.00,7,,55
2012-9-16,55,48,41,46,43,39,100,86,67,30.42,30.35,30.25,10,5,0,6,1,,0.00,3,,61
2012-9-17,51,46,42,48,46,39,100,93,87,30.25,30.17,30.13,10,5,0,7,1,,0.00,8,,289
2012-9-18,51,46,41,46,43,39,100,90,71,30.29,30.25,30.20,10,6,0,7,3,,0.00,4,,67
2012-9-19,55,46,37,48,42,36,100,87,67,30.31,30.27,30.24,10,8,0,6,2,,0.00,5,,74
2012-9-20,57,50,44,50,46,41,100,85,72,30.27,30.12,30.01,10,10,10,7,3,,0.00,1,,72
2012-9-21,66,54,42,55,48,39,100,86,64,30.05,30.03,30.01,10,6,0,6,1,,0.00,3,,79
2012-9-22,59,52,46,52,48,43,100,79,59,30.07,30.04,29.99,10,9,0,7,1,,0.00,6,,328
2012-9-23,55,53,50,54,50,48,100,90,82,30.11,30.07,30.04,10,9,0,7,2,,0.00,7,,266
2012-9-24,55,50,42,48,46,41,100,89,67,30.24,30.19,30.11,10,7,0,6,1,,0.00,6,,206
2012-9-25,53,46,39,46,42,37,100,86,67,30.24,30.09,29.97,10,6,0,16,2,24,0.00,6,,134
2012-9-26,57,52,46,50,47,45,93,85,67,30.00,29.83,29.52,10,9,3,17,3,29,0.00,7,,124
2012-9-27,55,50,46,52,46,43,93,83,67,29.79,29.66,29.42,10,10,5,16,5,30,0.00,7,,117
2012-9-28,51,48,46,46,45,43,93,88,82,29.92,29.85,29.78,10,10,6,8,1,,0.00,8,,197
2012-9-29,48,46,44,45,44,43,100,90,82,30.10,30.00,29.92,10,9,5,7,2,,0.00,8,,89
2012-9-30,53,48,42,48,42,39,100,88,71,30.18,30.07,29.80,10,10,7,6,2,,0.00,7,,88